Location: Aufkirchen
(47.9603°N, 11.3653°E)
Time: 18:40:53
(UTC+01:00)

ISS - Visible Passes

Search period start: 06 December 2021 00:00
Search period end: 16 December 2021 00:00
Orbit: 417 x 422 km, 51.6° (Epoch: 06 December)

Date Brightness Start Highest point End Pass type
(mag) Time Alt. Az. Time Alt. Az. Time Alt. Az.
06 Dec -2.3 18:02:14 10° WNW 18:05:24 37° SW 18:08:21 11° SSE visible
07 Dec -3.0 17:14:45 10° WNW 17:18:05 55° SSW 17:21:24 10° SE visible
07 Dec -0.4 18:53:35 10° WSW 18:54:17 10° SW 18:54:59 10° SW visible
08 Dec -0.7 18:04:53 10° W 18:07:05 16° SW 18:09:18 10° S visible
09 Dec -1.2 17:17:01 10° W 17:19:51 25° SW 17:22:40 10° SSE visible
11 Dec 0.1 17:20:47 10° WSW 17:21:23 10° SW 17:22:00 10° SW visible
